Regional Weather Roundup
Issued by NWS

Home | Current Version | Previous Version | Text Only | Print | Product List | Glossary Off
Versions: 1 2 3 4 5 6 7 8 9 10 11 12 13 14 15 16 17 18 19 20 21 22 23 24 25 26 27 28 29 30 31 32 33 34 35 36 37 38 39 40 41 42 43 44 45 46 47 48 49 50

000
ASUS43 KDMX 202207
RWRIA

WEATHER ROUNDUP FOR IOWA
NATIONAL WEATHER SERVICE DES MOINES IA
500 PM CDT MON OCT 20 2014

NOTE: "FAIR" INDICATES FEW OR NO CLOUDS BELOW 12,000 FEET WITH NO
SIGNIFICANT WEATHER AND/OR OBSTRUCTIONS TO VISIBILITY.

* - THESE STATIONS ARE NOT NWS STATIONS...THUS NOT UNDER NWS
QUALITY CONTROL.  THEY ALSO DO NOT REPORT WEATHER SUCH
AS PRECIPITATION OR FOG.

IAZ001>003-012>014-020>022-031>034-043>046-202300-
   NORTHWEST IOWA

CITY           SKY/WX    TMP DP  RH WIND       PRES   REMARKS
CARROLL *      SUNNY     70  37  30 N9G16     30.02S
CHEROKEE *     SUNNY     68  39  34 NW8       30.03S
DENISON *      SUNNY     68  39  34 NW10      30.02S
LE MARS *      SUNNY     70  39  32 NW7       30.04S HAZE
ORANGE CITY *  SUNNY     70  36  28 N7        30.04S
SHELDON *      SUNNY     70  37  30 N7G14     30.02S
SIOUX CITY     SUNNY     72  40  31 N8        30.04S
SPENCER        SUNNY     70  38  31 N13       30.03S
STORM LAKE *   SUNNY     68  36  30 NW10      30.04S
$$

IAZ055>058-069>071-079>083-090>094-202300-
   SOUTHWEST IOWA

CITY           SKY/WX    TMP DP  RH WIND       PRES   REMARKS
ATLANTIC *     SUNNY     70  39  32 NW10G16   30.02S
AUDUBON *      SUNNY     70  30  23 NW6       30.04S
CLARINDA *     SUNNY     72  37  28 N3        30.05S
COUNCIL BLFS * SUNNY     70  39  32 NW7       30.04R
CRESTON *      SUNNY     68  43  40 NW12      30.03S
HARLAN  *      SUNNY     70  39  32 NW12      30.07R
LAMONI         SUNNY     70  41  34 NW12      30.02S
RED OAK *      SUNNY     72  41  33 NW8       30.04R
SHENANDOAH *   SUNNY     72  39  30 N7        30.04S
$$

IAZ047>049-059>061-072>074-084-202300-
   CENTRAL IOWA

CITY           SKY/WX    TMP DP  RH WIND       PRES   REMARKS
AMES           SUNNY     69  39  33 NW15      30.00S
ANKENY *       SUNNY     70  39  32 NW10      30.00R
CHARITON *     SUNNY     70  41  35 NW12G17   30.01S
DES MOINES     MOSUNNY   71  38  29 NW9G18    30.00S
GRINNELL*      SUNNY     68  39  34 NW10G17   29.99S
KNOXVILLE *    SUNNY     68  41  37 NW14G20   29.99R
MARSHALLTOWN   SUNNY     67  41  38 NW17      29.98S
PELLA *        SUNNY     70  41  35 NW10      30.01R
PERRY *          N/A     70  37  30 NW10      30.01S
$$

IAZ004>006-015-016-023>025-035-036-202300-
   NORTH CENTRAL IOWA

CITY           SKY/WX    TMP DP  RH WIND       PRES   REMARKS
ALGONA *       SUNNY     68  39  34 N14       30.02S
CLARION *      SUNNY     68  39  34 NW15G22   30.01R
ESTHERVILLE    SUNNY     67  37  33 NW10      30.02S
FORT DODGE *   SUNNY     68  39  34 NW8       30.02S
MASON CITY     SUNNY     65  42  43 NW14G24   30.01R
FOREST CITY *  SUNNY     64  43  45 NW12G18   30.01R
IOWA FALLS *     N/A     68  39  34 NW18      30.01R
$$

IAZ007>011-017>019-026>030-037>042-050>054-066-202300-
   NORTHEAST IOWA

CITY           SKY/WX    TMP DP  RH WIND       PRES   REMARKS
CEDAR RAPIDS   SUNNY     67  41  38 NW16G26   29.95R
CHARLES CITY * SUNNY     64  41  42 NW16G22   29.98S
CLINTON *      MOSUNNY   64  43  45 NW12      29.96S
DECORAH *      SUNNY     63  43  48 NW10      29.96R
DUBUQUE        SUNNY     62  44  51 N12       29.95R
MONTICELLO *   SUNNY     66  43  42 NW15      29.94R
OELWEIN *      SUNNY     64  41  42 NW18      29.97R
WATERLOO       SUNNY     67  40  37 NW13G23   29.96S
$$

IAZ064-065-067-068-078-202300-
   EAST CENTRAL IOWA

CITY           SKY/WX    TMP DP  RH WIND       PRES   REMARKS
DAVENPORT      MOSUNNY   67  40  37 NW15      29.94R
IOWA CITY      SUNNY     68  43  40 NW14G23   29.96S
MT. PLEASANT * SUNNY     68  41  37 NW12      29.97S
MUSCATINE *    SUNNY     68  43  40 NW12G18   29.95S
QUAD CITIES    SUNNY     67  43  41 NW14G20   29.93R
$$

IAZ062-063-075>077-085>089-095>099-202300-
   SOUTHEAST IOWA

CITY           SKY/WX    TMP DP  RH WIND       PRES   REMARKS
BURLINGTON     SUNNY     68  43  40 NW13      29.96S
FAIRFIELD *    SUNNY     68  41  37 NW13G21   29.98R
FORT MADISON * SUNNY     70  43  37 NW8G20    29.97S
KEOKUK *       SUNNY     68  45  42 NW8G17    29.97R
OSKALOOSA *      N/A     70  39  32 NW14G20   29.99S
CENTERVILLE *  SUNNY     68  41  37 NW9       30.02S
OTTUMWA        LGT RAIN  68  43  40 NW12      29.98F
WASHINGTON *   SUNNY     68  43  40 NW16G23   29.97R
$$

ABBREVIATIONS USED IN REMARKS
   TC - TEMPERATURES IN CELSIUS
  WCI - WIND CHILL INDEX
   HX - HEAT INDEX
  VSB - VISIBILITY
$$




USA.gov is the U.S. government's official web portal to all federal, state and local government web resources and services.